STARLINK-32040 (60109 NORAD) Tracking and Keplerian Element Data

This shows tracking and keplerian element data for the satellite.

Feedback or suggestion? Click here.




ElementValue
Catalog60109
NameSTARLINK-32040
Epoch Orbit1829
Epoch Day286.35388898
Epoch Year2024
RAAN261.4303
Inclination53.1578
Eccentricity0.0001395
Argument of Perigee119.4748
Mean Anonmoly240.6392
Mean Motion15.30197406
Decay Rate0.00037393
L11 60109U 24117U 24286.35388898 .00037393 00000+0 12684-2 0 9992
L22 60109 53.1578 261.4303 0001395 119.4748 240.6392 15.30197406 18290



Live tracking and technical data element details for STARLINK-32040 (NORAD 60109). STARLINK-32040 can be tracked NOW for your location showing map with azimuth and elevation plus other details from your city location.







IsCatalogInMostPopularTable: catalog: 60109, numindb: 9
Update: records affected: 1



GetName: 60109 STARLINK-32040

Hit Count: updated at: Thu, 23 Jan 2025 17:05:54 GMT